Vorticity
17 22 16 28 14 3 8 -11 21 14 -6 18 6 13 17 7 20 29 10 -8 1 -22 10 5 8 15 14 13 10 24 8 12 15 -1 9 9 11 15 6 10 9 4 5 20 8 7 11 24 15 -13 18 18 12 13
8 22 19 20 20 11 29 42 34 43 40 40 27 20 30 48 5 10 -0 5 9 4 26 10 16 17 13 9 9 20 -4 28 17 1 3 11 9 13 15 6 16 9 -3 1 -2 11 11 25 10 -10 15 13 11 9
19 24 11 17 10 13 14 18 20 25 22 27 41 36 9 -10 -1 4 4 12 14 39 10 8 7 6 12 13 12 10 -1 22 9 8 10 11 8 8 7 10 13 19 18 12 3 17 25 16 11 20 10 8 7 6
19 24 29 21 20 12 15 16 11 6 3 2 -5 -9 0 5 8 14 17 16 15 11 21 6 8 12 10 8 14 7 13 14 21 16 6 7 4 16 12 9 11 7 16 6 -4 29 19 2 18 10 9 8 5 6
20 13 16 -2 11 13 12 10 -2 -3 2 6 8 10 10 12 12 12 22 -8 33 -26 16 5 11 11 8 5 7 8 6 10 11 7 11 13 10 7 8 8 11 18 9 15 30 24 -1 13 8 9 9 7 4 5
8 0 2 -5 0 3 7 9 9 11 11 11 11 11 12 13 12 14 5 7 1 28 7 -6 11 12 8 8 8 8 11 14 9 11 10 15 10 8 10 6 15 16 22 4 23 14 23 12 10 9 8 8 6 7
24 2 18 15 12 11 -0 13 9 10 10 11 12 13 12 17 11 5 4 3 11 24 11 -11 8 9 7 7 9 8 5 6 10 12 9 13 7 6 10 6 9 19 13 6 7 17 14 11 14 12 11 8 8 8
10 12 14 0 -0 13 10 7 9 9 9 10 13 12 11 10 7 10 19 13 13 19 -1 10 29 1 5 9 7 7 7 5 7 5 6 9 12 8 11 9 18 17 18 17 16 13 10 11 10 11 10 8 8 9
26 -4 19 13 6 11 12 13 12 9 10 11 11 11 14 3 21 13 16 14 2 17 4 25 11 23 5 8 5 6 6 10 8 6 5 7 17 11 11 9 16 16 15 16 14 12 12 10 11 10 8 10 8 11
3 -4 2 16 12 13 8 10 7 7 12 9 11 9 11 12 11 8 7 -4 7 10 29 31 13 20 5 7 16 7 19 15 14 15 12 14 11 10 10 9 13 15 14 13 9 12 14 11 11 9 11 7 9 12
7 7 1 3 5 17 9 10 8 11 11 8 4 13 13 12 -0 -1 4 11 11 11 18 8 21 12 12 5 11 8 11 14 12 13 6 10 18 13 14 11 12 14 11 11 12 10 9 11 12 11 10 11 12 12
16 19 12 8 4 2 2 5 7 7 9 14 25 13 -5 -14 1 14 13 7 11 23 12 17 8 9 5 4 7 11 7 8 10 15 6 13 16 13 14 8 12 15 16 11 12 13 11 11 10 10 13 13 13 6
8 26 8 8 20 15 7 9 7 11 16 26 3 -30 -3 14 14 9 15 15 23 25 11 4 8 9 -0 5 13 7 10 11 14 9 8 13 10 12 18 14 13 14 14 13 12 10 15 15 16 13 13 13 6 6
17 16 18 22 1 5 4 4 17 15 14 -5 -2 11 11 9 14 25 21 26 26 14 4 2 2 7 13 3 13 9 12 9 10 10 12 9 15 22 15 22 14 16 12 11 10 10 14 13 13 14 12 5 6 6
14 13 8 7 16 12 15 13 16 7 -10 -1 4 8 25 35 19 18 20 19 13 11 12 11 5 23 5 7 9 11 12 11 14 11 9 7 14 13 18 21 11 9 13 16 10 11 14 14 14 13 7 7 6 7
9 4 6 16 21 8 18 13 7 1 11 7 32 37 13 7 17 7 6 7 7 6 4 0 8 10 13 15 10 12 10 12 8 6 13 17 14 23 11 25 10 14 7 8 7 10 14 14 14 6 5 6 6 7
9 12 9 5 7 16 12 11 4 -7 7 28 15 12 14 8 7 11 4 4 4 5 10 5 9 16 13 11 11 13 9 11 10 16 14 21 24 10 7 14 16 15 7 5 6 12 15 16 10 6 6 7 5 6
11 10 11 11 12 13 6 4 -1 24 14 8 15 18 11 6 7 7 7 4 5 9 10 11 15 12 10 14 12 15 14 10 10 10 11 13 15 19 19 11 9 14 11 11 13 13 17 16 8 7 7 6 6 6
15 11 10 11 17 13 10 8 1 9 4 2 6 19 27 12 8 12 15 19 13 8 10 6 10 20 19 8 7 8 8 12 9 8 4 13 12 14 16 18 16 11 9 11 12 11 16 12 7 7 6 6 6 6
8 13 12 17 20 11 -6 22 -4 6 11 6 -2 -2 18 18 18 19 2 2 5 17 12 14 5 4 6 6 7 9 8 9 12 12 9 8 13 17 16 15 13 11 14 14 12 12 12 16 11 7 7 8 8 7
15 13 11 15 16 6 16 16 1 20 12 15 19 12 5 9 13 11 10 -0 7 13 9 11 8 8 12 16 14 12 15 18 13 11 8 4 2 3 5 10 15 15 13 12 13 11 12 11 10 10 9 8 8 8
4 8 7 15 14 5 12 25 -3 11 14 6 4 11 15 14 15 10 6 3 7 5 15 16 17 10 5 5 3 3 9 8 9 15 15 12 9 8 7 6 6 11 13 11 12 11 10 11 11 9 8 8 7 8
13 -0 4 13 5 13 14 17 13 3 9 10 7 -0 6 7 9 14 11 17 -2 6 -7 3 14 15 20 15 5 5 3 8 12 11 8 8 10 13 13 13 14 13 13 12 11 12 15 15 12 11 10 10 11 10
9 10 2 11 11 13 16 15 17 14 5 17 19 5 7 4 1 2 5 15 8 3 5 2 -6 9 12 2 3 7 11 12 11 11 11 12 10 8 10 12 14 13 11 11 12 14 15 14 12 11 12 13 11 10
0 9 7 11 10 19 5 17 15 15 14 6 6 4 19 16 14 10 6 9 7 4 9 10 10 -2 8 13 16 3 1 12 8 6 9 14 12 10 10 12 12 11 11 12 13 13 13 14 14 14 13 12 10 10
5 6 9 12 21 10 10 13 17 15 14 18 16 19 23 18 11 9 13 15 12 9 7 12 12 8 8 13 11 13 22 19 8 5 15 19 17 15 13 12 11 12 15 15 16 17 16 14 13 13 12 9 11 10
9 8 17 8 9 15 19 10 -1 11 19 10 14 10 11 10 16 16 22 27 34 24 14 12 10 10 10 13 18 20 16 14 14 14 20 17 17 15 13 13 15 16 16 16 15 14 13 13 13 9 9 11 10 10
7 17 8 4 7 17 12 7 14 23 15 12 13 6 8 14 11 9 10 -5 -2 7 1 13 13 11 14 16 11 9 11 13 16 16 15 15 14 13 14 14 14 14 15 14 13 14 13 10 11 12 10 10 10 8
17 3 8 2 2 3 8 9 17 18 7 6 7 6 2 3 6 7 9 10 11 10 12 11 11 10 11 9 7 12 15 16 15 13 13 14 15 15 16 14 14 14 14 17 15 14 13 13 11 11 9 9 9 8
12 9 10 10 10 7 -13 -5 -6 -1 -4 1 12 20 20 14 14 15 16 16 12 10 9 9 9 10 11 12 12 11 12 12 12 13 13 14 15 14 14 13 14 14 14 13 13 13 14 11 10 10 10 9 9 8
8 7 6 5 6 5 8 11 14 14 14 13 14 9 6 7 4 4 4 8 11 12 11 9 9 9 9 10 13 15 12 11 12 12 12 14 15 14 14 14 14 13 13 13 14 14 12 11 10 9 8 9 8 10
10 11 12 14 17 18 16 13 11 10 10 10 9 7 9 8 9 9 9 14 16 16 12 11 11 12 6 4 11 12 13 12 12 12 12 14 15 15 15 13 13 13 13 15 15 14 12 9 8 9 8 9 11 12
0 -7 -1 12 15 14 16 15 16 18 15 17 17 17 16 12 10 12 15 14 13 15 14 14 12 13 15 15 15 14 12 11 10 10 12 16 17 15 14 14 13 13 15 16 14 10 7 8 9 8 10 12 12 14
Height
2770 2767 2766 2763 2762 2765 2774 2783 2796 2807 2821 2834 2840 2854 2867 2879 2890 2900 2908 2917 2926 2932 2941 2948 2954 2960 2965 2969 2973 2976 2981 2983 2985 2988 2990 2990 2989 2990 2991 2991 2991 2991 2992 2992 2994 2992 2993 2991 2994 2997 2998 2997 2999 3000
2780 2779 2779 2779 2780 2785 2791 2799 2809 2820 2832 2843 2853 2864 2874 2884 2894 2904 2912 2920 2926 2934 2939 2948 2954 2959 2964 2967 2971 2974 2977 2978 2981 2984 2985 2985 2986 2987 2988 2990 2987 2990 2988 2988 2989 2988 2987 2988 2992 2995 2996 2999 3000 3002
2791 2791 2792 2794 2796 2800 2805 2813 2822 2832 2841 2851 2860 2869 2880 2890 2900 2908 2915 2921 2926 2932 2940 2948 2953 2958 2962 2966 2969 2973 2975 2976 2978 2980 2982 2983 2984 2985 2987 2987 2985 2984 2984 2984 2986 2985 2985 2988 2991 2994 2997 2999 3001 3003
2801 2803 2804 2805 2809 2814 2820 2827 2835 2843 2852 2861 2870 2879 2887 2895 2902 2910 2915 2921 2927 2931 2938 2948 2953 2957 2961 2965 2968 2971 2973 2975 2976 2978 2979 2980 2982 2983 2983 2984 2983 2983 2982 2982 2983 2982 2985 2987 2990 2994 2997 2999 3002 3004
2812 2814 2816 2819 2824 2829 2834 2840 2847 2855 2863 2871 2878 2885 2892 2898 2904 2911 2918 2924 2930 2937 2937 2945 2953 2957 2961 2964 2968 2970 2973 2974 2976 2977 2978 2979 2980 2981 2981 2982 2981 2981 2981 2982 2981 2983 2985 2988 2992 2995 2998 3000 3002 3004
2824 2827 2831 2834 2838 2842 2847 2853 2859 2865 2872 2878 2884 2890 2896 2902 2908 2914 2919 2928 2932 2935 2939 2945 2953 2957 2961 2964 2967 2970 2972 2973 2975 2976 2977 2977 2978 2980 2980 2980 2980 2979 2980 2981 2982 2984 2986 2989 2992 2995 2998 3000 3002 3003
2835 2838 2841 2844 2848 2853 2858 2863 2867 2873 2879 2885 2890 2896 2901 2906 2911 2916 2922 2926 2932 2937 2941 2947 2953 2957 2961 2964 2967 2970 2971 2973 2974 2976 2976 2977 2977 2977 2978 2978 2978 2978 2980 2981 2983 2985 2987 2989 2992 2995 2998 3000 3002 3004
2845 2847 2850 2854 2858 2862 2866 2870 2875 2880 2886 2891 2896 2901 2906 2911 2918 2922 2926 2930 2933 2938 2943 2947 2953 2958 2961 2964 2967 2969 2971 2972 2974 2975 2975 2976 2976 2976 2976 2976 2976 2977 2978 2980 2982 2984 2987 2989 2992 2995 2997 2999 3001 3003
2854 2857 2859 2863 2867 2870 2874 2878 2883 2887 2892 2896 2901 2906 2911 2917 2920 2924 2928 2932 2937 2942 2943 2946 2950 2956 2959 2963 2966 2969 2970 2972 2973 2973 2974 2976 2975 2975 2974 2974 2975 2976 2978 2980 2981 2984 2986 2989 2991 2994 2997 2998 3000 3003
2861 2864 2868 2871 2874 2877 2881 2885 2890 2894 2898 2902 2907 2911 2914 2919 2924 2928 2933 2936 2940 2941 2943 2945 2949 2952 2959 2962 2965 2969 2969 2970 2972 2972 2972 2973 2973 2973 2973 2973 2974 2975 2976 2979 2982 2984 2985 2987 2990 2993 2995 2997 2998 3001
2868 2871 2875 2878 2882 2885 2889 2893 2896 2900 2903 2907 2910 2912 2918 2923 2927 2931 2935 2938 2941 2944 2946 2948 2951 2954 2959 2962 2964 2967 2968 2969 2971 2972 2972 2972 2971 2971 2971 2972 2973 2974 2975 2977 2980 2982 2983 2986 2989 2991 2994 2996 2998 3001
2874 2878 2882 2885 2889 2892 2895 2899 2902 2906 2909 2912 2914 2918 2922 2926 2929 2933 2935 2938 2941 2944 2947 2950 2953 2956 2960 2962 2965 2966 2967 2968 2969 2969 2971 2971 2970 2970 2970 2970 2971 2973 2974 2976 2978 2981 2983 2985 2988 2990 2993 2996 2999 3002
2880 2883 2887 2891 2894 2897 2900 2903 2906 2910 2913 2916 2920 2923 2925 2928 2930 2933 2935 2937 2939 2943 2948 2951 2955 2958 2961 2963 2964 2965 2966 2968 2968 2969 2970 2968 2968 2968 2968 2968 2970 2971 2973 2975 2977 2980 2982 2985 2987 2990 2993 2997 2999 3002
2885 2888 2891 2895 2898 2901 2905 2908 2910 2913 2917 2920 2923 2925 2927 2929 2931 2932 2935 2937 2941 2945 2950 2953 2956 2959 2960 2962 2964 2965 2966 2967 2967 2968 2968 2967 2967 2966 2966 2967 2969 2971 2973 2975 2977 2980 2982 2984 2987 2989 2993 2996 2999 3001
2891 2893 2896 2899 2902 2905 2908 2911 2914 2917 2920 2922 2925 2927 2929 2931 2933 2936 2938 2942 2945 2949 2952 2955 2958 2959 2961 2963 2964 2965 2966 2966 2967 2968 2967 2966 2966 2966 2965 2966 2968 2970 2973 2975 2978 2980 2982 2984 2986 2990 2993 2995 2997 2999
2896 2899 2901 2903 2905 2908 2911 2914 2918 2921 2923 2925 2927 2930 2933 2936 2938 2941 2943 2946 2949 2952 2955 2957 2958 2960 2961 2962 2963 2964 2965 2966 2967 2966 2966 2965 2965 2965 2966 2966 2968 2970 2973 2975 2977 2979 2982 2984 2986 2989 2991 2993 2995 2997
2900 2902 2904 2906 2909 2912 2915 2918 2922 2924 2926 2929 2932 2935 2937 2939 2942 2945 2947 2950 2952 2954 2956 2957 2958 2959 2961 2962 2963 2964 2965 2966 2966 2966 2965 2964 2964 2965 2966 2967 2968 2970 2972 2974 2977 2979 2980 2982 2984 2987 2989 2991 2993 2994
2902 2905 2907 2910 2912 2915 2919 2922 2925 2928 2930 2933 2936 2938 2941 2943 2944 2947 2950 2952 2954 2955 2957 2958 2959 2960 2961 2962 2964 2964 2965 2966 2966 2966 2966 2965 2964 2965 2965 2967 2968 2970 2971 2973 2975 2977 2978 2980 2983 2985 2987 2988 2989 2990
2906 2908 2910 2913 2915 2918 2921 2925 2928 2930 2934 2936 2939 2940 2942 2944 2946 2949 2951 2953 2955 2957 2958 2959 2961 2961 2962 2963 2964 2964 2965 2966 2966 2966 2966 2965 2965 2965 2965 2966 2968 2969 2970 2972 2974 2975 2976 2978 2980 2982 2983 2984 2985 2986
2910 2912 2914 2915 2918 2920 2923 2927 2930 2932 2935 2939 2941 2943 2944 2946 2948 2950 2953 2955 2957 2958 2959 2960 2961 2962 2963 2964 2964 2965 2965 2965 2966 2966 2966 2966 2966 2966 2966 2967 2967 2968 2969 2970 2971 2973 2974 2975 2977 2978 2979 2980 2981 2981
2913 2915 2917 2918 2920 2923 2925 2928 2931 2934 2936 2939 2941 2944 2946 2948 2950 2952 2954 2956 2958 2958 2959 2960 2961 2962 2963 2963 2964 2964 2964 2964 2964 2965 2965 2965 2966 2966 2966 2966 2967 2967 2967 2968 2968 2969 2970 2972 2972 2974 2975 2975 2975 2975
2916 2918 2919 2921 2923 2925 2927 2929 2933 2935 2938 2940 2943 2944 2946 2948 2950 2952 2954 2956 2958 2959 2959 2960 2960 2961 2962 2963 2964 2964 2964 2964 2964 2963 2963 2963 2964 2964 2964 2964 2964 2964 2964 2964 2965 2965 2966 2967 2968 2969 2969 2969 2969 2969
2919 2921 2922 2923 2925 2927 2930 2931 2933 2935 2938 2940 2943 2945 2947 2949 2950 2952 2954 2955 2957 2958 2958 2959 2959 2959 2960 2961 2962 2962 2962 2962 2961 2961 2961 2961 2960 2960 2960 2960 2960 2960 2960 2960 2960 2961 2961 2962 2963 2963 2963 2963 2963 2963
2922 2924 2925 2926 2927 2928 2930 2931 2933 2936 2938 2940 2942 2944 2946 2948 2950 2951 2952 2954 2955 2956 2957 2957 2957 2958 2958 2958 2959 2959 2958 2958 2958 2958 2957 2957 2957 2957 2956 2956 2956 2956 2956 2956 2956 2956 2957 2957 2957 2958 2958 2958 2958 2957
2926 2928 2928 2928 2928 2930 2930 2932 2933 2935 2937 2939 2941 2942 2944 2946 2947 2948 2949 2952 2952 2953 2953 2954 2954 2955 2955 2954 2954 2954 2954 2954 2953 2953 2953 2952 2952 2952 2952 2951 2952 2952 2951 2951 2951 2951 2952 2952 2952 2952 2953 2952 2952 2951
2926 2928 2929 2928 2929 2930 2931 2932 2933 2935 2936 2938 2939 2941 2942 2944 2945 2945 2945 2947 2948 2949 2949 2950 2950 2950 2950 2949 2949 2949 2948 2948 2948 2948 2947 2946 2946 2946 2946 2947 2947 2947 2946 2946 2946 2946 2946 2947 2947 2947 2947 2947 2947 2946
2927 2927 2928 2929 2930 2930 2931 2933 2934 2935 2936 2937 2938 2939 2940 2941 2941 2941 2941 2942 2943 2945 2945 2946 2946 2945 2945 2944 2944 2943 2943 2943 2943 2943 2942 2941 2941 2941 2941 2942 2941 2942 2941 2941 2941 2942 2942 2942 2943 2943 2943 2943 2942 2941
2926 2927 2929 2930 2930 2931 2931 2932 2933 2934 2935 2936 2937 2938 2939 2939 2940 2940 2940 2940 2940 2941 2941 2941 2941 2941 2940 2940 2940 2939 2939 2938 2938 2938 2937 2937 2937 2937 2936 2937 2937 2937 2937 2937 2937 2937 2938 2938 2938 2938 2938 2938 2937 2936
2924 2927 2928 2929 2930 2930 2931 2932 2932 2933 2934 2935 2935 2936 2937 2937 2938 2937 2937 2937 2937 2937 2937 2937 2937 2937 2936 2936 2936 2935 2935 2934 2934 2934 2933 2933 2933 2933 2932 2932 2932 2933 2933 2933 2933 2934 2934 2934 2934 2934 2934 2934 2932 2931
2923 2924 2925 2926 2927 2928 2930 2930 2931 2931 2931 2932 2932 2932 2932 2932 2933 2933 2933 2933 2933 2933 2933 2933 2932 2932 2932 2932 2932 2931 2931 2930 2930 2930 2929 2929 2929 2928 2929 2929 2929 2929 2929 2929 2930 2930 2930 2930 2930 2930 2930 2929 2928 2926
2921 2922 2923 2923 2924 2925 2926 2926 2926 2926 2926 2926 2926 2926 2926 2926 2927 2927 2927 2928 2927 2927 2927 2928 2927 2927 2927 2927 2927 2927 2927 2927 2926 2926 2925 2925 2925 2925 2925 2925 2925 2926 2926 2926 2926 2926 2927 2927 2927 2927 2926 2925 2923 2921
2918 2918 2919 2919 2919 2920 2920 2920 2919 2919 2920 2920 2920 2920 2920 2919 2919 2919 2921 2921 2921 2921 2921 2921 2921 2921 2921 2921 2922 2922 2922 2922 2922 2922 2922 2921 2921 2921 2922 2922 2922 2923 2923 2923 2923 2924 2924 2924 2924 2923 2922 2921 2919 2916
2915 2915 2915 2914 2913 2913 2914 2914 2912 2912 2912 2912 2912 2913 2912 2912 2911 2912 2912 2912 2912 2912 2913 2913 2914 2914 2914 2915 2916 2916 2917 2918 2918 2918 2918 2918 2918 2918 2919 2919 2920 2920 2920 2921 2921 2922 2922 2922 2921 2920 2918 2916 2914 2912